Regional Weather Roundup
Issued by NWS Wilmington, NC

Home | Current Version | Previous Version | Text Only | Print | Product List | Glossary On
Versions: 1 2 3 4 5 6 7 8 9 10 11 12 13 14 15 16 17 18 19 20 21 22 23 24 25 26 27 28 29 30 31 32 33 34 35 36 37 38 39 40 41 42 43 44 45 46 47 48 49 50
000
ASUS42 KILM 181813
RWRILM
RWRILM
REGIONAL HOURLY WEATHER ROUNDUP
NATIONAL WEATHER SERVICE WILMINGTON NC
100 PM EST SUN FEB 18 2018

NOTE: "FAIR" INDICATES FEW OR NO CLOUDS BELOW 12,000 FEET WITH NO
SIGNIFICANT WEATHER AND/OR OBSTRUCTIONS TO VISIBILITY.

...............WFO WILMINGTON COUNTY WARNING AREA...............

......COASTAL NC AND SC COUNTIES......

CITY           SKY/WX    TMP DP  RH WIND       PRES   REMARKS
WILMINGTON     PTSUNNY   63  47  55 SE12      30.33S
N MYRTLE BEACH CLOUDY    60  52  74 E10       30.32R
MYRTLE BEACH   PTSUNNY   60  52  74 E14       30.33S

......INLAND NC AND SC COUNTIES.......

CITY           SKY/WX    TMP DP  RH WIND       PRES   REMARKS
LUMBERTON      PTSUNNY   64  42  44 N13       30.33F
ELIZABETHTOWN  NOT AVBL
WHITEVILLE     FAIR      63  45  50 NE7       30.32F
FLORENCE       FAIR      66  44  45 NE9       30.32F
DARLINGTON     FAIR      65  44  46 NE8       30.33F
KINGSTREE      PTSUNNY   64  46  52 N5        30.31S
HARTSVILLE     FAIR      63  41  45 NE8G17    30.32F
BENNETTSVILLE  FAIR      64  41  42 NE6G16    30.33F
CONWAY         PTSUNNY   64  46  52 NE9       30.32F
GEORGETOWN     CLOUDY    59  52  77 E8G16     30.33S
MARION         FAIR      63  45  51 E7        30.33S

....................REST OF NORTH CAROLINA......................

.........EASTERN NC.........

CITY           SKY/WX    TMP DP  RH WIND       PRES   REMARKS
CAPE HATTERAS  FAIR      52  40  63 NE17G28   30.38F
JACKSONVILLE   PTSUNNY   63  39  41 N12       30.34F
MOREHEAD CITY  CLOUDY    58  42  55 NE15G21   30.36S
KENANSVILLE    FAIR      61  39  44 NE6       30.35F
NEW BERN       FAIR      58  44  60 NE16      30.37R
ELIZABETH CITY FAIR      52  39  61 NE17      30.40S

.........CENTRAL NC.........

CITY           SKY/WX    TMP DP  RH WIND       PRES   REMARKS
RALEIGH DURHAM FAIR      58  35  42 VRB3      30.36F
ROCKY MOUNT    FAIR      60  36  40 N8        30.36F
ROANOKE RAPIDS NOT AVBL
FAYETTEVILLE   FAIR      62  36  37 N13       30.34F
HOFFMAN        FAIR      61  38  41 E12       30.33F

.........WESTERN NC.........

CITY           SKY/WX    TMP DP  RH WIND       PRES   REMARKS
CHARLOTTE      FAIR      60  36  40 E8        30.34F
GREENSBORO     FAIR      55  30  38 NE9       30.34F
HICKORY        NOT AVBL
BOONE          NOT AVBL
ASHEVILLE      NOT AVBL

.....................REST OF SOUTH CAROLINA.....................

.........EASTERN SC.........

CITY           SKY/WX    TMP DP  RH WIND       PRES   REMARKS
CHARLESTON     CLOUDY    66  58  75 NE9       30.29S
BEAUFORT MCAS  CLOUDY    68  60  75 NE8       30.27F
HILTON HEAD    CLOUDY    68  61  77 NE6       30.28S

.........CENTRAL SC.........

CITY           SKY/WX    TMP DP  RH WIND       PRES   REMARKS
COLUMBIA       PTSUNNY   66  48  52 E10       30.30F
ORANGEBURG     LGT RAIN  64  48  56 E8        30.30F
SUMTER SHAW    CLOUDY    65  44  47 NE10      30.29F

.........WESTERN SC.........

CITY           SKY/WX    TMP DP  RH WIND       PRES   REMARKS
GREENVILLE     NOT AVBL
ROCK HILL      FAIR      60  39  45 VRB7      30.34F
ANDERSON       FAIR      63  42  46 E12       30.29F
CLEMSON        NOT AVBL
GREENWOOD      FAIR      63  45  51 MISG      30.31F


...................COASTAL AND OFFSHORE REPORTS..................

................LOCAL PIERS AND NC RESERVE................


STATION/POSITION TIME  SKY/WX   TEMP    WIND        PRES    VSBY
                                AIR SEA DIR/SP/G
                 (UTC)          (F)     (DEG/KT/KT) (MB)    (MI)
JOHNY MRCER PIER 1748            53 55   90/ 12/ 14 1027.5F
NC RESRV MASNBRO NOT AVBL
OCEAN CREST PIER NOT AVBL
SPRINGMAID  PIER 1748                               1030.0F


................COASTAL AND OFFSHORE BUOYS................


STATION/POSITION TIME  SKY/WX   TEMP    WIND        PRES    VSBY
                                AIR SEA DIR/SP/G
                 (UTC)          (F)     (DEG/KT/KT) (MB)    (MI)
DIMNDSHOAL 41025 1750            52      20/ 23/ 31   N/A
WVE H/P(F/S)=  5/ 5 SWL H/P/D(F/S/D)=  2/190/15

CAPE LOOKOUT     1800                    40/ 23/ 26 1028.7R
ONSLOW BAY 41036 NOT AVBL
ONSLOW BAY 41064 1708            57 67   70/ 17/ 21 1027.5R
ONSLOW BAY 41159 1800               67                N/A
WVE H/P(F/S)=  5/10 SWL H/P/D(F/S/D)=  2/140/11

MASNBO INL 41110 1759               54                N/A
WVE H/P(F/S)=  3/ 6

WILM HARBR 41108 1800               54                N/A
WVE H/P(F/S)=  3/ 7

27SE WRITB 41037 1708            58 64   70/ 19/ 27 1027.4R
FRYING PAN 41013 1750            61 64   50/ 21/ 25 1026.4S
SUNST NRSH 41024 1708            55 54  130/ 10/ 12 1026.7R
CAPRS NRSH 41029 1708            54 57   60/ 16/ 21 1025.8R
EDISTO     41004 1750            65 68   50/ 17/ 19 1025.0F


..........OFFSHORE BUOYS BEYOND 100 NM OFFSHORE...........
.....IN A TRIANGLE---HAT TO BERMUDA TO BAHAMAS TO HAT.....


STATION/POSITION TIME  SKY/WX   TEMP    WIND        PRES    VSBY
                                AIR SEA DIR/SP/G
                 (UTC)          (F)     (DEG/KT/KT) (MB)    (MI)
150E HAT   41001 NOT AVBL
W BERMUDA  41048 1750            71     250/ 12/ 16 1023.9F
ATLANTIC S 41049 1750            74 78   CALM  /  2 1026.0F
WVE H/P(F/S)=  5/ 9 SWL H/P/D(F/S/D)=  5/330/ 9

E BAHAMAS  41046 1750                    80/ 12/ 16 1023.4F
WVE H/P(F/S)=  5/ 8 SWL H/P/D(F/S/D)=  3/ 70/ 8

NE BAHAMAS 41047 1750                   140/  4/  6 1024.8F
120E CANVRL41010 NOT AVBL

END



USA.gov is the U.S. government's official web portal to all federal, state and local government web resources and services.